{"data":{"norad_id":44350,"epoch":"2026-09-19T11:22:43.796928Z","epoch_age_seconds":147041,"freshness":"FRESH","line1":"1 44350U 19036M   26262.47411802  .00001922  00000+0  13789-3 0  9994","line2":"2 44350  23.9971 178.6775 0001059 200.3347 159.7112 14.96832853398212","mean_motion":14.96832853,"eccentricity":0.0001059,"inclination_deg":23.9971,"raan_deg":178.6775,"arg_perigee_deg":200.3347,"mean_anomaly_deg":159.7112,"bstar":0.00013789,"rev_number":39821,"period_min":96.203126295224,"perigee_km":575.9530369605,"apogee_km":577.42606922444,"semimajor_km":6954.8265530925,"source":"CELESTRAK","updated_at":"2026-09-20T09:00:14.525299Z"}}